Location: Goodfare
(55.2420°N, 119.7689°W)
Time: 05:00:51
(UTC+00:00)

ISS - Pass Details

Date: 02 December 2021
Orbit: 413 x 422 km, 51.6° (Epoch: 29 January)

Event Time Altitude Azimuth Distance (km) Brightness Sun altitude
Rises 01:15:11 0° 266° (W) 2,388 1.7 -13.3°
Reaches altitude 10° 01:17:21 10° 260° (W) 1,520 0.5 -13.6°
Maximum altitude 01:20:36 43° 187° (S) 609 -2.8 -14.1°
Enters shadow 01:22:51 18° 122° (ESE) 1,137 -1.9 -14.4°
